This demonstration page uses our WeatherBlox Daily Observations layout. Learn more.

Left ArrowRight Arrow

39.12711, -84.51439

Hourly Observations for January 14, 2022

Temp ( °F °C ) Dew Point ( °F °C ) Humidity (%) Winds ( mph kmh ) Pressure ( in mb ) Visibility ( mi km ) Precip ( " mm )
12:53 am 00:53 Clear 37 2.8 32 0 82 82 N 5 7 29.97 1015 10 16 0.00 0.00
1:53 am 01:53 Mostly Cloudy 35 1.7 32 0 89 89 NNW 3 6 29.99 1016 9 14 0.00 0.00
2:53 am 02:53 Cloudy 36 2.2 32 0 86 86 N 7 11 30.00 1016 8 13 0.00 0.00
3:42 am 03:42 Mostly Cloudy with Mist and Fog 35 1.7 32 0 89 89 NNE 7 11 30.03 1017 6 10 0.00 0.00
3:53 am 03:53 Cloudy with Mist and Fog 35 1.7 32 0 89 89 N 7 11 30.02 1017 6 10 0.00 0.00
4:53 am 04:53 Cloudy with Mist and Fog 35 1.7 31 -0.6 85 85 N 13 20 30.03 1017 5 8 0.00 0.00
5:53 am 05:53 Cloudy 35 1.7 30 -1.1 82 82 N 9 15 30.06 1018 7 11 0.00 0.00
6:53 am 06:53 Cloudy 34 1.1 30 -1.1 85 85 N 9 15 30.06 1018 7 11 0.00 0.00
7:53 am 07:53 Cloudy 34 1.1 30 -1.1 85 85 NE 6 9 30.08 1019 7 11 0.00 0.00
8:53 am 08:53 Cloudy with Mist and Fog 35 1.7 31 -0.6 85 85 NNE 7 11 30.10 1019 5 8 0.00 0.00
9:53 am 09:53 Cloudy with Mist and Fog 35 1.7 31 -0.6 85 85 N 5 7 30.13 1020 5 8 0.00 0.00
10:53 am 10:53 Cloudy 35 1.7 31 -0.6 85 85 NNE 5 7 30.15 1021 7 11 0.00 0.00
11:53 am 11:53 Cloudy 35 1.7 31 -0.6 85 85 NE 9 15 30.15 1021 8 13 0.00 0.00
12:53 pm 12:53 Cloudy 36 2.2 30 -1.1 79 79 NNE 7 11 30.13 1020 9 14 0.00 0.00
1:53 pm 13:53 Cloudy 35 1.7 30 -1.1 82 82 ENE 6 9 30.13 1020 9 14 0.00 0.00
2:53 pm 14:53 Cloudy 35 1.7 30 -1.1 82 82 NNE 5 7 30.13 1020 9 14 0.00 0.00
3:53 pm 15:53 Cloudy 35 1.7 30 -1.1 82 82 ENE 5 7 30.15 1021 9 14 0.00 0.00
4:53 pm 16:53 Cloudy 34 1.1 28 -2.2 79 79 ENE 7 11 30.16 1022 9 14 0.00 0.00
5:53 pm 17:53 Cloudy 34 1.1 28 -2.2 79 79 Calm 30.17 1022 10 16 0.00 0.00
6:53 pm 18:53 Cloudy 34 1.1 28 -2.2 79 79 Calm 30.17 1022 10 16 0.00 0.00
7:53 pm 19:53 Cloudy 34 1.1 28 -2.2 79 79 ENE 3 6 30.18 1022 10 16 0.00 0.00
8:53 pm 20:53 Cloudy 34 1.1 28 -2.2 79 79 NE 7 11 30.18 1022 10 16 0.00 0.00
9:53 pm 21:53 Cloudy 34 1.1 29 -1.7 82 82 NE 7 11 30.18 1022 10 16 0.00 0.00
10:53 pm 22:53 Cloudy 34 1.1 30 -1.1 85 85 ENE 5 7 30.17 1022 10 16 0.00 0.00
11:42 pm 23:42 Cloudy 33 0.6 29 -1.7 85 85 NE 7 11 30.20 1023 10 16 0.00 0.00
11:53 pm 23:53 Cloudy 33 0.6 28 -2.2 82 82 NE 7 11 30.19 1022 10 16 0.00 0.00

Powered by AerisWeather